STARLINK-30377, 57825

Orbit data source: Space-Track

STARLINK-30377, 57825 is a payload satellite owned by SpaceX/Seattle (US) in LEO that was launched on Sat, 09 Sep 2023 UTC via an FALCON 9 launch vehicle from the Air Force Eastern Test Range (AFETR). Payload-class satellites include a variety of spacecraft equipped with specific instruments for various scientific and technological missions. These include communications satellites like Starlink; space stations such as the ISS; scientific satellites like the Hubble; Earth observation satellites from companies like Planet Labs, Umbra, and HawkEye 360; GPS; miniature CubeSats for education and research; and military/defense satellites.

Loading next visibility...
Identifier
57825, 2023-138T
Orbit
LEO
Country
Flag of USUS
Related business
Manufacturer
SpaceX/Seattle
Mission
Operational Commercial Communications
Bus & Motor
STARLINK V2M, Unknown motor
Mass
730 kg wet, ~700 kg dry
Launch date (UTC)
2023-09-09 (3 years ago)
Launch vehicle
FALCON 9
Launch site
Air Force Eastern Test Range (AFETR)
Object type
Payload
Rocket body
Debris
Shape & HBR
Box + 2 Pan, 17.7 m
Radar Cross Section
33.884 m², Large (>1 m²)

Expand to show TLE details & history
Last TLE update: 3 days ago

TLE from 3 days ago
0 STARLINK-30377
1 57825U 23138T   26169.98955220 -.00001118  00000-0 -31118-4 0  9999
2 57825  43.0040  21.8528 0002002 271.3326  88.7296 15.27572483154121
Epoch: 2026-06-18T23:44Z
TLE epoch observation values (Epoch: 2026-06-18T23:44:57.310Z)
Latitude
-0.00002°
Longitude
118.38902°
Altitude
482.817 km
Speed
7.626 km/s
True Right ascension
01h 27m 24s
True Declination
0° 00' 00"
Sunlit
Object was in daylight at epoch
Visualization orbit readout
Latitude
Unknown
Longitude
Unknown
Altitude
Unknown
Speed
Unknown
Apparent Right ascension
Unknown
Apparent Declination
Unknown
Sunlit
N/A
Visualization observer readout
Local Sidereal Time
21:33:40
Azimuth
Unknown
Elevation
Unknown
Doppler factor
Unknown
Orbital elements
Apogee altitude
486.39 km
Perigee altitude
483.642 km
Semi-major axis
6,863.153 km
Eccentricity
0.0002
Inclination
43.004°
RAAN
21.8528°
Arg. of periapsis
271.3326°
True anomaly
88.75254°
Mean anomaly
88.7296°
Eccentric anomaly
88.74107°
Mean motion
3.81731 °/min
Orbital period
94.31 mins
BSTAR
-0.000031118
Loading maneuver chart data...
Computing Atmospheric mass density...
Loading historical data...
Loading historical data...
Loading historical data...
Loading historical data...
Loading historical data...
Loading historical data...
Loading historical data...

Documentation

Showing up to 5 results
|